| time (UTC) | temp C | wind direction | speed KPH | gust KPH | rain 1hr cm | rain 24hr cm | rain mn cm | humidity % | barometer mb |
| 20260509150901 | 25 | 199 | 0.0 | 4.8 | 0.00 | 0.00 | 0.00 | 74 | 1011.0 |
| 20260509150358 | 25 | 61 | 3.2 | 4.8 | 0.00 | 0.00 | 0.00 | 76 | 1011.0 |
| 20260509145856 | 25 | 146 | 3.2 | 4.8 | 0.00 | 0.00 | 0.00 | 77 | 1011.0 |
| 20260509145350 | 25 | 228 | 0.0 | 6.4 | 0.00 | 0.00 | 0.00 | 77 | 1011.1 |
| 20260509144847 | 25 | 117 | 0.0 | 6.4 | 0.00 | 0.00 | 0.00 | 78 | 1010.9 |
| 20260509144344 | 25 | 245 | 3.2 | 4.8 | 0.00 | 0.00 | 0.00 | 79 | 1011.1 |
| 20260509143841 | 24 | 194 | 1.6 | 4.8 | 0.00 | 0.00 | 0.00 | 80 | 1010.8 |
| 20260509143338 | 23 | 75 | 0.0 | 4.8 | 0.00 | 0.00 | 0.00 | 82 | 1010.8 |
| 20260509142834 | 23 | 81 | 0.0 | 6.4 | 0.00 | 0.00 | 0.00 | 82 | 1011.0 |
| 20260509142331 | 23 | 78 | 0.0 | 4.8 | 0.00 | 0.00 | 0.00 | 84 | 1010.9 |
| 20260509141826 | 23 | 90 | 0.0 | 6.4 | 0.00 | 0.00 | 0.00 | 83 | 1011.0 |
| 20260509141328 | 23 | 270 | 0.0 | 4.8 | 0.00 | 0.00 | 0.00 | 84 | 1011.0 |
| 20260509140820 | 23 | 0 | 0.0 | 3.2 | 0.00 | 0.00 | 0.00 | 84 | 1011.0 |
| 20260509140317 | 23 | 180 | 0.0 | 9.7 | 0.00 | 0.00 | 0.00 | 84 | 1010.8 |
| 20260509135815 | 23 | 161 | 4.8 | 4.8 | 0.00 | 0.00 | 0.00 | 85 | 1010.9 |
| 20260509135312 | 22 | 180 | 0.0 | 1.6 | 0.00 | 0.00 | 0.00 | 85 | 1010.9 |
| 20260509134809 | 22 | 71 | 4.8 | 4.8 | 0.00 | 0.00 | 0.00 | 86 | 1010.9 |
| 20260509134306 | 22 | 270 | 0.0 | 3.2 | 0.00 | 0.00 | 0.00 | 87 | 1011.0 |
| 20260509133804 | 22 | 188 | 0.0 | 6.4 | 0.00 | 0.00 | 0.00 | 88 | 1010.8 |
| 20260509133300 | 22 | 31 | 4.8 | 4.8 | 0.00 | 0.00 | 0.00 | 89 | 1010.7 |
| 20260509132759 | 21 | 297 | 3.2 | 4.8 | 0.00 | 0.00 | 0.00 | 89 | 1010.7 |
| 20260509132257 | 21 | 160 | 1.6 | 6.4 | 0.00 | 0.00 | 0.00 | 90 | 1010.5 |
| 20260509131753 | 21 | 90 | 0.0 | 3.2 | 0.00 | 0.00 | 0.00 | 91 | 1010.4 |
| 20260509131250 | 21 | 15 | 3.2 | 8.0 | 0.00 | 0.00 | 0.00 | 91 | 1010.7 |
| 20260509130746 | 21 | 283 | 0.0 | 4.8 | 0.00 | 0.00 | 0.00 | 92 | 1010.7 |
| 20260509130242 | 20 | 66 | 0.0 | 4.8 | 0.00 | 0.00 | 0.00 | 93 | 1010.6 |
| 20260509125739 | 20 | 343 | 3.2 | 8.0 | 0.00 | 0.00 | 0.00 | 93 | 1010.7 |
| 20260509125236 | 20 | 334 | 0.0 | 4.8 | 0.00 | 0.00 | 0.00 | 93 | 1010.6 |
| 20260509124732 | 20 | 348 | 0.0 | 6.4 | 0.00 | 0.00 | 0.00 | 94 | 1010.7 |
| 20260509124229 | 20 | 160 | 1.6 | 6.4 | 0.00 | 0.00 | 0.00 | 94 | 1010.6 |
| 20260509123727 | 20 | 114 | 1.6 | 9.7 | 0.00 | 0.00 | 0.00 | 94 | 1010.7 |
| 20260509123224 | 20 | 331 | 0.0 | 4.8 | 0.00 | 0.00 | 0.00 | 94 | 1010.9 |
| 20260509122720 | 20 | 112 | 3.2 | 11.3 | 0.00 | 0.00 | 0.00 | 94 | 1010.3 |
| 20260509122217 | 20 | 337 | 0.0 | 4.8 | 0.00 | 0.00 | 0.00 | 95 | 1010.6 |
| 20260509121713 | 20 | 270 | 0.0 | 4.8 | 0.00 | 0.00 | 0.00 | 95 | 1010.6 |
| 20260509121211 | 20 | 121 | 0.0 | 4.8 | 0.00 | 0.00 | 0.00 | 95 | 1010.6 |
| 20260509120709 | 20 | 11 | 3.2 | 4.8 | 0.00 | 0.00 | 0.00 | 95 | 1010.5 |
| 20260509120207 | 20 | 0 | 0.0 | 6.4 | 0.00 | 0.00 | 0.00 | 95 | 1010.2 |
| 20260509115704 | 20 | 279 | 4.8 | 8.0 | 0.00 | 0.00 | 0.00 | 95 | 1010.4 |
| 20260509115201 | 19 | 270 | 0.0 | 6.4 | 0.00 | 0.00 | 0.00 | 94 | 1010.2 |
| 20260509114700 | 20 | 4 | 4.8 | 8.0 | 0.00 | 0.00 | 0.00 | 94 | 1010.5 |
| 20260509114158 | 20 | 279 | 0.0 | 4.8 | 0.00 | 0.00 | 0.00 | 93 | 1010.3 |
| 20260509113656 | 20 | 352 | 3.2 | 4.8 | 0.00 | 0.00 | 0.00 | 93 | 1010.1 |
| 20260509113153 | 20 | 331 | 4.8 | 4.8 | 0.00 | 0.00 | 0.00 | 92 | 1010.2 |
| 20260509112649 | 20 | 285 | 4.8 | 9.7 | 0.00 | 0.00 | 0.00 | 92 | 1009.7 |
| 20260509112147 | 20 | 345 | 6.4 | 8.0 | 0.00 | 0.00 | 0.00 | 92 | 1009.8 |
| 20260509111644 | 19 | 293 | 3.2 | 3.2 | 0.00 | 0.00 | 0.00 | 92 | 1009.7 |
| 20260509111140 | 19 | 334 | 0.0 | 0.0 | 0.00 | 0.00 | 0.00 | 93 | 1009.6 |
| 20260509110637 | 18 | 173 | 0.0 | 1.6 | 0.00 | 0.00 | 0.00 | 94 | 1009.4 |
| 20260509110134 | 18 | 90 | 0.0 | 0.0 | 0.00 | 0.00 | 0.00 | 93 | 1009.3 |
| 20260509105633 | 19 | 8 | 0.0 | 0.0 | 0.00 | 0.00 | 0.00 | 93 | 1009.0 |
| 20260509105130 | 19 | 82 | 0.0 | 0.0 | 0.00 | 0.00 | 0.00 | 93 | 1009.0 |
| 20260509104627 | 19 | 270 | 0.0 | 0.0 | 0.00 | 0.00 | 0.00 | 93 | 1009.0 |
| 20260509104124 | 19 | 270 | 0.0 | 0.0 | 0.00 | 0.00 | 0.00 | 93 | 1008.9 |
| 20260509103622 | 20 | 270 | 0.0 | 0.0 | 0.00 | 0.00 | 0.00 | 93 | 1008.7 |
| 20260509103119 | 20 | 270 | 0.0 | 0.0 | 0.00 | 0.00 | 0.00 | 93 | 1008.9 |
| 20260509102616 | 20 | 270 | 0.0 | 0.0 | 0.00 | 0.00 | 0.00 | 93 | 1008.9 |
| 20260509102114 | 20 | 270 | 0.0 | 0.0 | 0.00 | 0.00 | 0.00 | 92 | 1008.9 |
| 20260509101609 | 20 | 270 | 0.0 | 0.0 | 0.00 | 0.00 | 0.00 | 92 | 1008.6 |
| 20260509101106 | 20 | 270 | 0.0 | 0.0 | 0.00 | 0.00 | 0.00 | 92 | 1008.9 |
| 20260509100603 | 20 | 99 | 0.0 | 0.0 | 0.00 | 0.00 | 0.00 | 91 | 1008.6 |
| 20260509100101 | 20 | 99 | 0.0 | 0.0 | 0.00 | 0.00 | 0.00 | 91 | 1008.9 |
| 20260509095557 | 20 | 84 | 0.0 | 3.2 | 0.00 | 0.00 | 0.00 | 91 | 1008.9 |
| 20260509095055 | 20 | 254 | 0.0 | 0.0 | 0.00 | 0.00 | 0.00 | 90 | 1008.8 |
| 20260509094551 | 20 | 74 | 0.0 | 0.0 | 0.00 | 0.00 | 0.00 | 90 | 1008.3 |
| 20260509094048 | 21 | 74 | 0.0 | 0.0 | 0.00 | 0.00 | 0.00 | 90 | 1008.2 |
| 20260509093547 | 21 | 73 | 0.0 | 3.2 | 0.00 | 0.00 | 0.00 | 90 | 1008.2 |
| 20260509093044 | 21 | 270 | 0.0 | 0.0 | 0.00 | 0.00 | 0.00 | 90 | 1008.3 |
| 20260509092541 | 21 | 234 | 0.0 | 1.6 | 0.00 | 0.00 | 0.00 | 90 | 1008.4 |
| 20260509092040 | 21 | 106 | 0.0 | 0.0 | 0.00 | 0.00 | 0.00 | 90 | 1008.0 |
| 20260509091537 | 21 | 195 | 0.0 | 0.0 | 0.00 | 0.00 | 0.00 | 90 | 1008.0 |
| 20260509091034 | 21 | 71 | 0.0 | 1.6 | 0.00 | 0.00 | 0.00 | 91 | 1008.2 |
| 20260509090531 | 21 | 270 | 0.0 | 1.6 | 0.00 | 0.00 | 0.00 | 91 | 1008.5 |
| 20260509090029 | 21 | 83 | 1.6 | 1.6 | 0.00 | 0.00 | 0.00 | 91 | 1008.5 |
| 20260509085526 | 21 | 254 | 0.0 | 1.6 | 0.00 | 0.00 | 0.00 | 91 | 1008.5 |
| 20260509085022 | 21 | 276 | 0.0 | 6.4 | 0.00 | 0.00 | 0.00 | 91 | 1008.2 |
| 20260509084519 | 21 | 90 | 0.0 | 3.2 | 0.00 | 0.00 | 0.00 | 91 | 1006.9 |
| 20260509084016 | 21 | 90 | 0.0 | 4.8 | 0.00 | 0.00 | 0.00 | 91 | 1006.8 |
| 20260509083513 | 21 | 74 | 1.6 | 3.2 | 0.00 | 0.00 | 0.00 | 91 | 1006.5 |
| 20260509083010 | 21 | 196 | 0.0 | 8.0 | 0.00 | 0.00 | 0.00 | 91 | 1006.0 |
| 20260509082507 | 21 | 270 | 1.6 | 6.4 | 0.00 | 0.00 | 0.00 | 91 | 1006.3 |
| 20260509082004 | 21 | 77 | 3.2 | 4.8 | 0.00 | 0.00 | 0.00 | 91 | 1006.6 |
| 20260509081501 | 21 | 190 | 3.2 | 6.4 | 0.00 | 0.00 | 0.00 | 91 | 1006.9 |
| 20260509080958 | 21 | 217 | 4.8 | 4.8 | 0.00 | 0.00 | 0.00 | 91 | 1007.1 |
| 20260509080456 | 21 | 180 | 0.0 | 6.4 | 0.00 | 0.00 | 0.00 | 91 | 1007.7 |
| 20260509075954 | 21 | 231 | 3.2 | 9.7 | 0.00 | 0.00 | 0.00 | 91 | 1008.2 |
| 20260509075451 | 21 | 263 | 4.8 | 6.4 | 0.00 | 0.00 | 0.00 | 91 | 1008.4 |
| 20260509074949 | 21 | 243 | 0.0 | 3.2 | 0.00 | 0.00 | 0.00 | 91 | 1008.7 |
| 20260509074446 | 21 | 270 | 4.8 | 4.8 | 0.00 | 0.00 | 0.00 | 91 | 1009.0 |
| 20260509073942 | 21 | 258 | 3.2 | 4.8 | 0.00 | 0.00 | 0.00 | 91 | 1009.4 |
| 20260509073438 | 21 | 235 | 4.8 | 4.8 | 0.00 | 0.00 | 0.00 | 92 | 1009.5 |
| 20260509072935 | 21 | 264 | 0.0 | 3.2 | 0.00 | 0.00 | 0.00 | 92 | 1009.3 |
| 20260509072432 | 21 | 254 | 3.2 | 3.2 | 0.00 | 0.00 | 0.00 | 92 | 1009.6 |
| 20260509071929 | 21 | 209 | 0.0 | 4.8 | 0.00 | 0.00 | 0.00 | 92 | 1009.8 |
| 20260509071425 | 21 | 229 | 3.2 | 4.8 | 0.00 | 0.00 | 0.00 | 93 | 1010.3 |
| 20260509070923 | 20 | 239 | 3.2 | 6.4 | 0.00 | 0.00 | 0.00 | 93 | 1010.2 |
| 20260509070420 | 20 | 203 | 1.6 | 4.8 | 0.00 | 0.00 | 0.00 | 93 | 1010.3 |
| 20260509065915 | 20 | 166 | 1.6 | 4.8 | 0.00 | 0.00 | 0.00 | 93 | 1010.1 |
| 20260509065411 | 20 | 249 | 0.0 | 6.4 | 0.00 | 0.00 | 0.00 | 93 | 1010.7 |
| 20260509064908 | 20 | 264 | 1.6 | 4.8 | 0.00 | 0.00 | 0.00 | 93 | 1010.8 |
| 20260509064406 | 20 | 245 | 0.0 | 4.8 | 0.00 | 0.00 | 0.00 | 94 | 1010.7 |
| 20260509063903 | 20 | 180 | 0.0 | 3.2 | 0.00 | 0.00 | 0.00 | 94 | 1010.5 |
| 20260509063359 | 20 | 255 | 3.2 | 6.4 | 0.00 | 0.00 | 0.00 | 94 | 1010.8 |
| 20260509062856 | 20 | 101 | 3.2 | 3.2 | 0.00 | 0.00 | 0.00 | 94 | 1010.7 |
| 20260509062353 | 20 | 270 | 1.6 | 3.2 | 0.00 | 0.00 | 0.00 | 94 | 1010.8 |
| 20260509061850 | 20 | 270 | 0.0 | 3.2 | 0.00 | 0.00 | 0.00 | 93 | 1010.8 |
| 20260509061349 | 20 | 200 | 0.0 | 3.2 | 0.00 | 0.00 | 0.00 | 93 | 1010.6 |
| 20260509060845 | 20 | 270 | 0.0 | 3.2 | 0.00 | 0.00 | 0.00 | 93 | 1010.4 |
| 20260509060342 | 20 | 90 | 0.0 | 0.0 | 0.00 | 0.00 | 0.00 | 93 | 1011.0 |
| 20260509055837 | 20 | 270 | 0.0 | 0.0 | 0.00 | 0.00 | 0.00 | 93 | 1010.8 |
| 20260509055333 | 20 | 257 | 0.0 | 1.6 | 0.00 | 0.00 | 0.00 | 92 | 1010.5 |
| 20260509054830 | 20 | 188 | 0.0 | 0.0 | 0.00 | 0.00 | 0.00 | 92 | 1010.7 |
| 20260509054327 | 20 | 188 | 0.0 | 0.0 | 0.00 | 0.00 | 0.00 | 91 | 1010.7 |
| 20260509053825 | 20 | 188 | 0.0 | 1.6 | 0.00 | 0.00 | 0.00 | 91 | 1011.2 |
| 20260509053322 | 20 | 81 | 0.0 | 0.0 | 0.00 | 0.00 | 0.00 | 90 | 1011.8 |
| 20260509052821 | 21 | 90 | 0.0 | 3.2 | 0.00 | 0.00 | 0.00 | 90 | 1011.2 |
| 20260509052318 | 21 | 246 | 0.0 | 0.0 | 0.00 | 0.00 | 0.00 | 89 | 1011.2 |
| 20260509051815 | 21 | 180 | 0.0 | 0.0 | 0.00 | 0.00 | 0.00 | 89 | 1011.6 |
| 20260509051313 | 21 | 180 | 0.0 | 0.0 | 0.00 | 0.00 | 0.00 | 89 | 1011.7 |
| 20260509050809 | 21 | 270 | 0.0 | 3.2 | 0.00 | 0.00 | 0.00 | 89 | 1011.7 |
| 20260509050306 | 21 | 270 | 0.0 | 3.2 | 0.00 | 0.00 | 0.00 | 90 | 1011.7 |
| 20260509045803 | 20 | 90 | 3.2 | 3.2 | 0.00 | 2.44 | 2.44 | 90 | 1011.1 |
| 20260509045300 | 20 | 270 | 0.0 | 0.0 | 0.00 | 2.44 | 2.44 | 90 | 1010.6 |
| 20260509044757 | 21 | 270 | 0.0 | 0.0 | 0.00 | 2.44 | 2.44 | 89 | 1010.6 |
| 20260509044255 | 21 | 270 | 0.0 | 0.0 | 0.00 | 2.44 | 2.44 | 88 | 1010.7 |
| 20260509043751 | 21 | 261 | 0.0 | 0.0 | 0.00 | 2.44 | 2.44 | 87 | 1010.6 |
| 20260509043247 | 21 | 90 | 0.0 | 0.0 | 0.00 | 2.44 | 2.44 | 86 | 1010.5 |
| 20260509042743 | 21 | 90 | 0.0 | 1.6 | 0.00 | 2.44 | 2.44 | 86 | 1010.6 |
| 20260509042240 | 21 | 90 | 0.0 | 1.6 | 0.00 | 2.44 | 2.44 | 85 | 1010.6 |
| 20260509041737 | 22 | 90 | 0.0 | 1.6 | 0.00 | 2.44 | 2.44 | 85 | 1010.4 |
| 20260509041233 | 22 | 90 | 0.0 | 1.6 | 0.00 | 2.44 | 2.44 | 85 | 1010.1 |
| 20260509040732 | 22 | 276 | 0.0 | 1.6 | 0.00 | 2.44 | 2.44 | 85 | 1010.0 |
| 20260509040229 | 22 | 90 | 1.6 | 3.2 | 0.00 | 2.44 | 2.44 | 85 | 1010.0 |
| 20260509035725 | 22 | 270 | 0.0 | 3.2 | 0.00 | 2.44 | 2.44 | 85 | 1009.9 |
| 20260509035222 | 22 | 83 | 0.0 | 3.2 | 0.00 | 2.44 | 2.44 | 84 | 1009.7 |
| 20260509034719 | 22 | 180 | 0.0 | 1.6 | 0.00 | 2.44 | 2.44 | 84 | 1009.9 |
| 20260509034217 | 22 | 99 | 0.0 | 1.6 | 0.00 | 2.44 | 2.44 | 84 | 1010.0 |
| 20260509033714 | 22 | 188 | 0.0 | 0.0 | 0.00 | 2.44 | 2.44 | 84 | 1010.3 |
| 20260509033211 | 22 | 180 | 0.0 | 0.0 | 0.00 | 2.44 | 2.44 | 84 | 1010.7 |
| 20260509032708 | 22 | 195 | 0.0 | 3.2 | 0.00 | 2.44 | 2.44 | 84 | 1011.0 |
| 20260509032204 | 22 | 90 | 0.0 | 0.0 | 0.00 | 2.44 | 2.44 | 84 | 1010.7 |
| 20260509031702 | 22 | 191 | 3.2 | 3.2 | 0.00 | 2.44 | 2.44 | 84 | 1010.6 |
| 20260509031159 | 22 | 165 | 0.0 | 0.0 | 0.00 | 2.44 | 2.44 | 84 | 1010.6 |
| 20260509030658 | 22 | 165 | 0.0 | 0.0 | 0.00 | 2.44 | 2.44 | 84 | 1010.2 |
| 20260509030154 | 22 | 105 | 0.0 | 1.6 | 0.00 | 2.44 | 2.44 | 84 | 1010.2 |
| 20260509025650 | 22 | 90 | 0.0 | 3.2 | 0.00 | 2.44 | 2.44 | 84 | 1009.9 |
| 20260509025147 | 22 | 165 | 0.0 | 1.6 | 0.00 | 2.44 | 2.44 | 84 | 1009.7 |
| 20260509024642 | 22 | 180 | 0.0 | 1.6 | 0.00 | 2.44 | 2.44 | 84 | 1009.3 |
| 20260509024138 | 22 | 188 | 0.0 | 0.0 | 0.00 | 2.44 | 2.44 | 84 | 1009.6 |
| 20260509023636 | 22 | 234 | 0.0 | 3.2 | 0.00 | 2.44 | 2.44 | 83 | 1009.4 |
| 20260509023133 | 22 | 7 | 0.0 | 4.8 | 0.00 | 2.44 | 2.44 | 83 | 1009.1 |
| 20260509022629 | 22 | 199 | 0.0 | 4.8 | 0.00 | 2.44 | 2.44 | 83 | 1009.0 |
| 20260509022127 | 22 | 166 | 0.0 | 4.8 | 0.00 | 2.44 | 2.44 | 83 | 1008.8 |
| 20260509021624 | 22 | 282 | 0.0 | 6.4 | 0.00 | 2.44 | 2.44 | 83 | 1008.7 |
| 20260509021121 | 22 | 261 | 0.0 | 3.2 | 0.00 | 2.44 | 2.44 | 83 | 1008.8 |
| 20260509020619 | 22 | 19 | 0.0 | 4.8 | 0.00 | 2.44 | 2.44 | 83 | 1008.7 |
| 20260509020116 | 22 | 191 | 0.0 | 3.2 | 0.00 | 2.44 | 2.44 | 84 | 1008.5 |
| 20260509015615 | 22 | 195 | 0.0 | 1.6 | 0.00 | 2.44 | 2.44 | 83 | 1008.8 |
| 20260509015112 | 22 | 90 | 0.0 | 3.2 | 0.00 | 2.44 | 2.44 | 83 | 1008.6 |
| 20260509014608 | 22 | 192 | 0.0 | 1.6 | 0.00 | 2.44 | 2.44 | 83 | 1008.7 |
| 20260509014105 | 22 | 74 | 0.0 | 3.2 | 0.00 | 2.44 | 2.44 | 83 | 1008.6 |
| 20260509013602 | 22 | 254 | 0.0 | 1.6 | 0.00 | 2.44 | 2.44 | 83 | 1008.8 |
| 20260509013057 | 22 | 180 | 0.0 | 1.6 | 0.00 | 2.44 | 2.44 | 83 | 1008.9 |
| 20260509012554 | 22 | 249 | 0.0 | 1.6 | 0.00 | 2.44 | 2.44 | 82 | 1009.0 |
| 20260509012051 | 22 | 270 | 0.0 | 0.0 | 0.00 | 2.44 | 2.44 | 82 | 1009.2 |
| 20260509011549 | 22 | 270 | 0.0 | 0.0 | 0.00 | 2.44 | 2.44 | 82 | 1009.0 |
| 20260509011046 | 22 | 263 | 0.0 | 3.2 | 0.00 | 2.44 | 2.44 | 82 | 1008.9 |
| 20260509010544 | 22 | 246 | 0.0 | 1.6 | 0.00 | 2.44 | 2.44 | 82 | 1009.0 |
| 20260509010040 | 22 | 82 | 0.0 | 1.6 | 0.00 | 2.44 | 2.44 | 82 | 1008.6 |
| 20260509005538 | 22 | 192 | 0.0 | 3.2 | 0.00 | 2.44 | 2.44 | 81 | 1008.7 |
| 20260509005038 | 22 | 270 | 0.0 | 1.6 | 0.00 | 2.44 | 2.44 | 81 | 1008.7 |
| 20260509004535 | 23 | 261 | 0.0 | 1.6 | 0.00 | 2.44 | 2.44 | 80 | 1008.5 |
| 20260509004032 | 23 | 98 | 0.0 | 3.2 | 0.00 | 2.44 | 2.44 | 79 | 1008.5 |
| 20260509003531 | 23 | 261 | 0.0 | 4.8 | 0.00 | 2.44 | 2.44 | 79 | 1008.6 |
| 20260509003027 | 23 | 346 | 0.0 | 3.2 | 0.00 | 2.44 | 2.44 | 78 | 1008.3 |
| 20260509002525 | 23 | 266 | 4.8 | 6.4 | 0.00 | 2.44 | 2.44 | 78 | 1008.3 |
| 20260509002022 | 23 | 185 | 3.2 | 4.8 | 0.00 | 2.44 | 2.44 | 77 | 1008.4 |
| 20260509001520 | 23 | 270 | 0.0 | 3.2 | 0.00 | 2.44 | 2.44 | 76 | 1008.1 |
| 20260509001015 | 24 | 123 | 3.2 | 6.4 | 0.00 | 2.44 | 2.44 | 75 | 1008.2 |
| 20260509000514 | 24 | 246 | 3.2 | 4.8 | 0.00 | 2.44 | 2.44 | 75 | 1008.2 |
| 20260509000009 | 24 | 270 | 0.0 | 4.8 | 0.00 | 2.44 | 2.44 | 74 | 1008.4 |
| 20260508235508 | 25 | 270 | 0.0 | 6.4 | 0.00 | 2.44 | 2.44 | 74 | 1008.1 |
| 20260508235003 | 24 | 266 | 4.8 | 4.8 | 0.00 | 2.44 | 2.44 | 74 | 1008.3 |
| 20260508234501 | 23 | 270 | 3.2 | 4.8 | 0.00 | 2.44 | 2.44 | 75 | 1008.7 |
| 20260508233958 | 24 | 90 | 0.0 | 3.2 | 0.00 | 2.44 | 2.44 | 74 | 1008.9 |
| 20260508233457 | 24 | 195 | 3.2 | 4.8 | 0.00 | 2.44 | 2.44 | 74 | 1008.6 |
| 20260508232954 | 24 | 221 | 0.0 | 4.8 | 0.00 | 2.44 | 2.44 | 74 | 1008.5 |
| 20260508232451 | 24 | 243 | 0.0 | 4.8 | 0.00 | 2.44 | 2.44 | 73 | 1008.7 |
| 20260508231948 | 24 | 187 | 1.6 | 3.2 | 0.00 | 2.44 | 2.44 | 72 | 1008.8 |
| 20260508231445 | 25 | 98 | 0.0 | 4.8 | 0.00 | 2.44 | 2.44 | 71 | 1008.7 |
| 20260508230942 | 25 | 255 | 0.0 | 4.8 | 0.00 | 2.44 | 2.44 | 71 | 1008.8 |
| 20260508230439 | 25 | 105 | 1.6 | 3.2 | 0.00 | 2.44 | 2.44 | 70 | 1008.9 |
| 20260508225936 | 25 | 259 | 0.0 | 4.8 | 0.00 | 2.44 | 2.44 | 70 | 1008.8 |
| 20260508225432 | 25 | 90 | 1.6 | 3.2 | 0.00 | 2.44 | 2.44 | 69 | 1008.7 |
| 20260508224930 | 25 | 263 | 0.0 | 6.4 | 0.00 | 2.44 | 2.44 | 69 | 1009.0 |
| 20260508224427 | 25 | 99 | 0.0 | 4.8 | 0.00 | 2.44 | 2.44 | 69 | 1008.8 |
| 20260508223924 | 25 | 84 | 0.0 | 3.2 | 0.00 | 2.44 | 2.44 | 70 | 1008.9 |
| 20260508223422 | 25 | 203 | 0.0 | 4.8 | 0.00 | 2.44 | 2.44 | 70 | 1008.6 |
| 20260508222919 | 25 | 216 | 0.0 | 8.0 | 0.00 | 2.44 | 2.44 | 69 | 1008.9 |
| 20260508222416 | 25 | 189 | 3.2 | 8.0 | 0.00 | 2.44 | 2.44 | 68 | 1008.9 |
| 20260508221913 | 25 | 297 | 8.0 | 11.3 | 0.00 | 2.44 | 2.44 | 69 | 1009.0 |
| 20260508221408 | 25 | 77 | 3.2 | 4.8 | 0.00 | 2.44 | 2.44 | 69 | 1008.9 |
| 20260508220905 | 25 | 81 | 0.0 | 4.8 | 0.00 | 2.44 | 2.44 | 69 | 1008.9 |
| 20260508220402 | 25 | 255 | 4.8 | 8.0 | 0.00 | 2.44 | 2.44 | 69 | 1008.9 |
| 20260508215858 | 25 | 65 | 3.2 | 4.8 | 0.00 | 2.44 | 2.44 | 69 | 1008.9 |
| 20260508215355 | 25 | 249 | 0.0 | 4.8 | 0.00 | 2.44 | 2.44 | 70 | 1008.7 |
| 20260508214852 | 25 | 90 | 0.0 | 3.2 | 0.00 | 2.44 | 2.44 | 69 | 1008.8 |
| 20260508214350 | 25 | 12 | 3.2 | 4.8 | 0.00 | 2.44 | 2.44 | 70 | 1008.9 |
| 20260508213845 | 24 | 180 | 0.0 | 3.2 | 0.00 | 2.44 | 2.44 | 72 | 1008.7 |
| 20260508213343 | 24 | 215 | 0.0 | 6.4 | 0.00 | 2.44 | 2.44 | 70 | 1009.0 |
| 20260508212838 | 24 | 73 | 4.8 | 4.8 | 0.00 | 2.44 | 2.44 | 71 | 1008.8 |
| 20260508212335 | 24 | 190 | 3.2 | 9.7 | 0.00 | 2.44 | 2.44 | 70 | 1009.3 |
| 20260508211831 | 24 | 203 | 1.6 | 8.0 | 0.00 | 2.44 | 2.44 | 71 | 1009.4 |
| 20260508211327 | 24 | 90 | 0.0 | 4.8 | 0.00 | 2.44 | 2.44 | 70 | 1009.3 |
| 20260508210825 | 25 | 255 | 4.8 | 4.8 | 0.00 | 2.44 | 2.44 | 71 | 1009.4 |
| 20260508210321 | 25 | 319 | 0.0 | 6.4 | 0.00 | 2.44 | 2.44 | 69 | 1009.1 |
| 20260508205818 | 25 | 96 | 0.0 | 6.4 | 0.00 | 2.44 | 2.44 | 69 | 1009.3 |
| 20260508205314 | 24 | 246 | 3.2 | 4.8 | 0.00 | 2.44 | 2.44 | 70 | 1009.1 |
| 20260508204811 | 24 | 185 | 1.6 | 4.8 | 0.00 | 2.44 | 2.44 | 70 | 1009.3 |
| 20260508204308 | 24 | 250 | 0.0 | 3.2 | 0.00 | 2.44 | 2.44 | 71 | 1009.7 |
| 20260508203804 | 23 | 217 | 0.0 | 4.8 | 0.00 | 2.44 | 2.44 | 72 | 1009.8 |
| 20260508203300 | 23 | 90 | 0.0 | 0.0 | 0.00 | 2.44 | 2.44 | 73 | 1010.1 |
| 20260508202755 | 22 | 96 | 0.0 | 1.6 | 0.00 | 2.44 | 2.44 | 75 | 1010.6 |
| 20260508202253 | 22 | 262 | 6.4 | 8.0 | 0.00 | 2.44 | 2.44 | 74 | 1010.9 |
| 20260508201750 | 22 | 151 | 0.0 | 4.8 | 0.00 | 2.44 | 2.44 | 74 | 1011.3 |
| 20260508201247 | 22 | 262 | 0.0 | 3.2 | 0.00 | 2.44 | 2.44 | 74 | 1011.0 |
| 20260508200744 | 22 | 270 | 3.2 | 4.8 | 0.00 | 2.44 | 2.44 | 73 | 1011.2 |
| 20260508200240 | 23 | 283 | 3.2 | 9.7 | 0.00 | 2.44 | 2.44 | 73 | 1011.1 |
| 20260508195736 | 23 | 240 | 1.6 | 3.2 | 0.00 | 2.44 | 2.44 | 73 | 1011.1 |
| 20260508195233 | 23 | 184 | 3.2 | 3.2 | 0.00 | 2.44 | 2.44 | 73 | 1010.9 |
| 20260508194730 | 23 | 246 | 1.6 | 3.2 | 0.00 | 2.44 | 2.44 | 74 | 1011.0 |
| 20260508194226 | 23 | 276 | 0.0 | 4.8 | 0.00 | 2.44 | 2.44 | 73 | 1010.9 |
| 20260508193723 | 23 | 194 | 6.4 | 6.4 | 0.00 | 2.44 | 2.44 | 73 | 1010.9 |
| 20260508193220 | 23 | 198 | 1.6 | 8.0 | 0.00 | 2.44 | 2.44 | 74 | 1011.1 |
| 20260508192716 | 23 | 260 | 3.2 | 4.8 | 0.00 | 2.44 | 2.44 | 73 | 1010.8 |
| 20260508192214 | 23 | 251 | 3.2 | 6.4 | 0.00 | 2.44 | 2.44 | 74 | 1011.1 |
| 20260508191711 | 23 | 270 | 4.8 | 8.0 | 0.00 | 2.44 | 2.44 | 73 | 1011.1 |
| 20260508191208 | 23 | 250 | 6.4 | 6.4 | 0.00 | 2.44 | 2.44 | 73 | 1011.1 |
| 20260508190705 | 23 | 203 | 3.2 | 6.4 | 0.00 | 2.44 | 2.44 | 73 | 1011.2 |
| 20260508190201 | 23 | 192 | 1.6 | 8.0 | 0.00 | 2.44 | 2.44 | 74 | 1011.3 |
| 20260508185658 | 23 | 240 | 1.6 | 6.4 | 0.00 | 2.44 | 2.44 | 72 | 1011.3 |
| 20260508185155 | 23 | 98 | 6.4 | 6.4 | 0.00 | 2.44 | 2.44 | 73 | 1011.4 |
| 20260508184652 | 23 | 258 | 4.8 | 9.7 | 0.00 | 2.44 | 2.44 | 72 | 1011.3 |
| 20260508184150 | 24 | 263 | 1.6 | 9.7 | 0.00 | 2.44 | 2.44 | 71 | 1011.4 |
| 20260508183646 | 25 | 263 | 0.0 | 4.8 | 0.00 | 2.44 | 2.44 | 69 | 1011.4 |
| 20260508183142 | 24 | 180 | 0.0 | 3.2 | 0.00 | 2.44 | 2.44 | 71 | 1011.6 |
| 20260508182638 | 25 | 254 | 3.2 | 4.8 | 0.00 | 2.44 | 2.44 | 70 | 1011.3 |
| 20260508182135 | 25 | 220 | 3.2 | 3.2 | 0.00 | 2.44 | 2.44 | 71 | 1011.5 |
| 20260508181630 | 25 | 276 | 3.2 | 3.2 | 0.00 | 2.44 | 2.44 | 69 | 1011.7 |
| 20260508181128 | 24 | 244 | 4.8 | 4.8 | 0.00 | 2.44 | 2.44 | 71 | 1011.8 |
| 20260508180625 | 23 | 236 | 4.8 | 4.8 | 0.00 | 2.44 | 2.44 | 72 | 1011.9 |
| 20260508180121 | 24 | 248 | 3.2 | 6.4 | 0.00 | 2.44 | 2.44 | 71 | 1011.9 |
| 20260508175618 | 24 | 270 | 1.6 | 4.8 | 0.00 | 2.44 | 2.44 | 71 | 1012.0 |
| 20260508175115 | 24 | 218 | 4.8 | 4.8 | 0.00 | 2.44 | 2.44 | 72 | 1012.2 |
| 20260508174612 | 24 | 270 | 3.2 | 3.2 | 0.00 | 2.44 | 2.44 | 70 | 1012.0 |
| 20260508174109 | 23 | 320 | 0.0 | 6.4 | 0.00 | 2.44 | 2.44 | 71 | 1012.2 |
| 20260508173606 | 23 | 276 | 1.6 | 8.0 | 0.00 | 2.44 | 2.44 | 70 | 1012.5 |
| 20260508173102 | 23 | 190 | 3.2 | 3.2 | 0.00 | 2.44 | 2.44 | 71 | 1012.5 |
| 20260508172600 | 23 | 350 | 0.0 | 4.8 | 0.00 | 2.44 | 2.44 | 71 | 1012.4 |
| 20260508172056 | 23 | 280 | 4.8 | 6.4 | 0.00 | 2.44 | 2.44 | 68 | 1012.5 |
| 20260508171552 | 23 | 221 | 3.2 | 4.8 | 0.00 | 2.44 | 2.44 | 71 | 1012.4 |
| 20260508171049 | 23 | 261 | 0.0 | 3.2 | 0.00 | 2.44 | 2.44 | 69 | 1012.6 |
| 20260508170547 | 23 | 177 | 3.2 | 4.8 | 0.00 | 2.44 | 2.44 | 70 | 1012.5 |
| 20260508170044 | 22 | 270 | 4.8 | 4.8 | 0.00 | 2.44 | 2.44 | 69 | 1012.9 |
| 20260508165541 | 22 | 270 | 0.0 | 4.8 | 0.00 | 2.44 | 2.44 | 73 | 1012.9 |
| 20260508165037 | 22 | 270 | 0.0 | 4.8 | 0.00 | 2.44 | 2.44 | 73 | 1013.3 |
| 20260508164533 | 21 | 270 | 3.2 | 6.4 | 0.00 | 2.44 | 2.44 | 73 | 1013.1 |
| 20260508164031 | 21 | 234 | 0.0 | 6.4 | 0.00 | 2.44 | 2.44 | 76 | 1013.4 |
| 20260508163528 | 21 | 187 | 0.0 | 4.8 | 0.00 | 2.44 | 2.44 | 76 | 1013.5 |
| 20260508163025 | 21 | 270 | 0.0 | 3.2 | 0.00 | 2.44 | 2.44 | 73 | 1013.9 |
| 20260508162521 | 21 | 206 | 1.6 | 3.2 | 0.00 | 2.44 | 2.44 | 75 | 1013.7 |
| 20260508162019 | 21 | 90 | 3.2 | 3.2 | 0.00 | 2.44 | 2.44 | 79 | 1013.9 |
| 20260508161516 | 20 | 90 | 0.0 | 3.2 | 0.00 | 2.44 | 2.44 | 80 | 1013.8 |
| 20260508161013 | 20 | 196 | 3.2 | 3.2 | 0.00 | 2.44 | 2.44 | 80 | 1013.9 |
| 20260508160511 | 20 | 200 | 0.0 | 3.2 | 0.00 | 2.44 | 2.44 | 81 | 1014.1 |
| 20260508160008 | 18 | 165 | 0.0 | 4.8 | 0.00 | 2.44 | 2.44 | 84 | 1014.0 |
| 20260508155505 | 18 | 203 | 0.0 | 3.2 | 0.00 | 2.44 | 2.44 | 89 | 1014.0 |
| 20260508155002 | 17 | 212 | 0.0 | 0.0 | 0.00 | 2.44 | 2.44 | 93 | 1014.2 |
| 20260508154500 | 17 | 180 | 0.0 | 3.2 | 0.00 | 2.44 | 2.44 | 95 | 1014.2 |
| 20260508153955 | 16 | 188 | 0.0 | 3.2 | 0.00 | 2.44 | 2.44 | 97 | 1014.0 |
| 20260508153452 | 17 | 77 | 0.0 | 3.2 | 0.00 | 2.44 | 2.44 | 98 | 1014.2 |
| 20260508152949 | 17 | 194 | 1.6 | 1.6 | 0.00 | 2.44 | 2.44 | 98 | 1014.2 |
| 20260508152446 | 17 | 343 | 0.0 | 4.8 | 0.00 | 2.44 | 2.44 | 99 | 1014.3 |
| 20260508151942 | 17 | 97 | 0.0 | 1.6 | 0.00 | 2.44 | 2.44 | 99 | 1014.2 |
| 20260508151439 | 16 | 270 | 0.0 | 0.0 | 0.00 | 2.44 | 2.44 | 99 | 1014.5 |
| 20260508150935 | 16 | 270 | 0.0 | 4.8 | 0.00 | 2.44 | 2.44 | 99 | 1014.4 |